RH
27 31 34 28 34 43 56 69 83 91 89 84 89 94 95 97 96 79 79 54 55 53 57 64 54 53 51 45 46 47 51 56 54 53 54 49 47 45 44 41 39 46 48 44
27 29 27 31 35 47 58 74 86 91 90 90 91 89 92 95 92 85 83 60 51 64 57 57 57 51 49 47 41 43 46 57 57 56 52 54 50 47 46 41 42 53 56 47
26 24 29 32 37 56 63 74 73 87 95 92 94 93 94 93 88 89 79 67 52 56 56 54 56 52 46 50 45 41 42 53 57 58 56 54 55 54 50 48 43 46 48 52
23 24 28 32 36 57 65 63 71 79 89 95 94 93 92 94 92 85 83 72 56 50 57 57 56 53 47 52 51 44 40 44 51 55 58 56 58 62 58 51 47 43 50 58
23 25 27 31 35 43 62 59 70 76 90 92 94 93 79 90 97 87 84 79 64 58 61 57 58 54 52 51 49 50 43 46 49 51 55 58 65 61 53 51 49 50 55 54
26 27 28 30 41 45 58 63 74 82 85 89 88 90 82 86 86 91 88 83 73 69 63 59 61 59 57 55 47 54 46 45 48 57 64 58 59 61 57 59 53 54 56 51
31 29 37 42 50 54 54 72 76 79 91 89 85 90 81 76 79 80 88 83 84 80 74 62 63 61 58 53 49 51 56 49 50 59 62 65 61 61 60 60 56 53 48 47
34 31 44 47 46 49 57 62 70 75 84 80 84 83 66 58 69 77 79 82 88 83 80 71 62 60 59 54 51 49 49 59 51 52 61 66 68 66 63 61 63 61 49 46
36 37 38 47 44 44 57 58 60 72 76 76 73 69 59 59 65 70 73 78 83 84 80 78 64 60 60 56 50 51 43 46 58 59 61 64 66 67 68 71 66 63 61 57
37 40 37 41 47 47 45 54 61 66 73 74 69 69 61 57 59 65 70 74 78 82 82 83 66 67 64 54 55 53 53 45 41 51 62 65 69 69 66 69 67 63 73 67
38 39 39 35 39 44 38 46 51 56 62 69 66 56 48 47 52 55 66 70 76 80 80 85 77 72 70 62 57 57 55 45 40 36 41 53 64 67 65 65 67 69 66 64
37 40 45 42 39 43 43 43 39 46 37 57 47 41 44 45 51 50 59 73 78 81 82 83 77 80 76 67 66 59 65 56 56 52 38 34 43 56 67 70 68 73 76 69
40 47 51 51 49 45 47 43 39 38 39 39 36 30 46 48 55 57 63 70 78 80 85 83 80 77 67 71 76 69 69 71 70 70 51 39 33 36 46 55 61 64 65 66
41 46 51 51 48 49 55 52 48 46 53 51 45 51 51 54 57 66 73 76 79 80 80 75 73 73 73 69 75 73 72 74 75 76 71 48 33 31 33 34 39 48 52 48
42 46 48 55 53 53 58 55 53 52 53 61 63 55 53 54 63 67 73 74 75 78 84 79 75 73 70 70 69 71 72 74 77 79 74 59 39 33 34 32 34 35 34 36
40 44 49 54 59 58 60 59 57 56 61 61 65 62 56 60 63 62 66 71 72 77 82 82 80 78 76 74 71 75 79 77 78 79 81 75 51 43 42 41 52 59 63 60
39 38 47 53 53 55 60 60 62 64 63 62 63 65 65 73 68 66 68 68 78 82 85 78 81 78 77 78 80 78 81 81 83 87 91 84 78 73 76 81 83 75 83 92
43 39 42 42 48 52 55 59 62 65 66 65 67 69 68 71 75 70 67 67 74 86 89 90 85 81 80 80 84 85 86 89 93 90 89 89 88 87 92 91 90 81 78 80
41 41 47 50 55 51 53 52 52 56 58 59 60 63 62 69 67 68 71 72 73 73 76 78 79 82 86 85 85 93 91 92 91 93 89 87 91 88 91 89 86 85 83 84
44 46 47 54 52 54 46 47 46 48 56 54 57 59 62 64 64 65 66 70 70 71 71 70 70 70 80 87 89 91 98 99 94 98 92 86 86 94 94 92 92 88 80 77
48 58 57 60 63 64 52 50 47 51 45 48 58 63 64 68 68 67 66 64 67 67 65 65 66 68 68 66 79 82 89 94 96 94 93 96 98 98 94 96 91 86 79 74
41 50 49 53 58 53 50 49 49 50 51 52 53 57 62 65 71 72 73 70 70 66 63 66 68 68 66 68 72 87 87 91 97 98 96 99 99 97 87 88 90 88 79 78
39 38 42 41 44 43 53 54 53 52 54 51 51 49 51 58 66 69 70 68 72 71 72 69 69 69 70 70 73 82 89 91 93 95 98 98 94 90 96 94 89 91 88 80
48 49 49 47 40 39 35 39 39 42 40 43 41 38 43 45 52 59 60 65 66 70 75 71 72 71 73 75 73 76 83 88 86 86 90 92 92 91 92 91 96 96 91 89
41 41 44 43 39 38 37 41 47 44 36 35 30 30 32 37 45 51 52 54 60 67 71 77 78 75 72 71 73 74 77 76 80 80 82 82 86 88 88 90 90 93 96 95
38 40 40 38 32 29 30 38 38 42 39 33 29 26 25 27 28 32 37 43 51 59 68 74 76 77 76 77 78 76 78 78 77 77 78 78 81 82 83 84 84 89 91 97